Regional Weather Roundup
Issued by NWS

Home | Current Version | Previous Version | Graphics & Text | Print | Product List | Glossary On
Versions: 1 2 3 4 5 6 7 8 9 10 11 12 13 14 15 16 17 18 19 20 21 22 23 24 25 26 27
000
ASUS45 KCYS 200710
RWRWY

WYOMING REGIONAL WEATHER ROUNDUP
NATIONAL WEATHER SERVICE CHEYENNE WY
100 AM MDT SUN APR 20 2014

NOTE:  "FAIR" INDICATES FEW OR NO CLOUDS BELOW 12,000 FEET
WITH NO SIGNIFICANT WEATHER AND/OR OBSTRUCTIONS TO VISIBILITY.

WYZ001-200800-
YELLOWSTONE NATIONAL PARK

CITY           SKY/WX    TMP DP  RH WIND       PRES   REMARKS
LK YELLOWSTONE   N/A     25  20  81 CALM      30.10R
W YELLOWSTONE  NOT AVBL

$$
WYZ002>013-054>058-071-098>099-200800-
NORTHERN WYOMING

CITY           SKY/WX    TMP DP  RH WIND       PRES   REMARKS
JACKSON        CLEAR     37  27  65 CALM      30.06S
CODY           PTCLDY    48  23  37 S10       29.94R
GREYBULL       CLEAR     47  28  47 CALM      29.91S
WORLAND        CLEAR     43  29  57 S6        29.93S
SHERIDAN         N/A     45  34  65 SW12G17     N/A
BUFFALO        CLEAR     47  26  44 W5        29.95S
GILLETTE       CLEAR     45  33  63 S10       29.94S
HULETT         FAIR      48  32  53 CALM      29.95
NEWCASTLE      FAIR      52  28  40 E16       29.97

$$
WYZ014>020-022>026-101>103-200800-
CENTRAL WYOMING

CITY           SKY/WX    TMP DP  RH WIND       PRES   REMARKS
BIG PINEY      CLEAR     31  19  61 NE5       30.11S WCI  26
PINEDALE       SUNNY     32  27  80 NW5       30.12S WCI  27
DUBOIS         FAIR      34  23  64 W13       30.05S WCI  25
LANDER         CLEAR     48  24  39 SW3       29.99S
RIVERTON       CLEAR     45  16  31 W7        30.00S
CASPER         CLEAR     47  35  63 SW15      29.98R
DOUGLAS        PTCLDY    45  38  76 SE6       29.98S

$$
WYZ021-027>030-104>119-200800-
SOUTHERN WYOMING

CITY           SKY/WX    TMP DP  RH WIND       PRES   REMARKS
EVANSTON       CLEAR     45  29  53 S5        30.13R
KEMMERER       SUNNY     39  28  65 CALM      30.14R
FORT BRIDGER   FAIR      47  28  47 SW10      30.15S
ROCK SPRINGS   CLEAR     46  30  53 SW9       30.11R
DIXON          FAIR      38  33  84 E5        30.15S WCI  34
RAWLINS        PTCLDY    46  33  60 SW12      30.10R
SARATOGA       FAIR      41  32  70 S7        30.13R
LARAMIE        CLEAR     37  31  78 SW10      30.10S WCI  30
CHEYENNE       PTCLDY    48  41  76 SW15      30.07S
TORRINGTON     PTCLDY    50  39  66 SE10      29.99S
PINE BLUFFS    FAIR      43  37  81 S8        30.07S

$$



USA.gov is the U.S. government's official web portal to all federal, state and local government web resources and services.